Wind_Speed
36 36 37 39 40 39 37 34 33 32 33 35 36 35 37 39 39 39 39 39 39 39 38 35 34 38 40 42 42 43 43 44 45 46 45 45 45 46 47 48 50 52
35 36 37 38 39 40 39 37 35 33 32 36 38 37 36 37 40 42 42 41 42 41 38 35 36 39 40 42 43 43 43 44 45 45 46 46 47 48 48 49 51 53
34 35 36 36 38 39 40 39 38 36 35 38 41 41 39 38 41 44 44 43 42 40 37 37 38 39 39 41 42 43 44 44 44 44 45 47 48 48 49 51 52 54
33 35 35 35 36 39 42 41 38 36 36 38 41 42 42 41 41 42 42 42 42 40 38 38 38 38 40 42 43 43 43 44 45 45 46 48 48 49 50 52 53 55
32 34 35 36 36 39 44 43 40 38 38 37 39 40 42 43 43 42 42 41 42 41 40 39 39 39 41 43 45 45 45 46 46 47 49 50 49 49 50 52 53 55
32 34 35 36 36 38 43 45 43 41 40 39 40 40 42 43 43 43 42 41 41 41 41 40 39 40 42 43 45 45 46 46 47 48 51 50 48 48 49 52 54 55
32 34 35 36 36 37 41 44 44 42 41 41 42 42 43 43 44 44 42 40 40 41 41 41 41 42 42 43 45 46 45 46 48 50 50 48 47 48 51 54 55 54
33 34 34 35 36 36 39 41 42 42 42 41 42 43 44 44 44 43 41 39 39 41 43 43 44 43 43 44 45 45 46 48 51 52 49 47 47 50 53 54 54 55
32 33 34 34 34 36 39 42 42 41 42 42 42 43 44 45 45 44 42 41 41 43 45 45 45 44 43 44 45 46 49 51 52 50 48 47 49 51 53 54 55 55
32 33 33 32 33 35 38 41 43 42 41 41 41 43 44 45 46 45 44 44 44 45 45 45 45 44 45 46 48 50 51 51 50 48 47 47 49 51 54 55 54 53
32 33 32 31 32 34 35 39 42 43 43 41 41 41 44 46 46 46 45 45 45 46 46 45 46 47 47 49 50 50 49 48 47 47 46 47 49 52 54 54 52 51
33 33 32 31 31 32 34 36 39 42 43 43 42 42 43 45 46 46 45 45 46 46 46 47 47 48 48 49 48 47 46 46 46 46 46 49 51 52 52 51 52 54
33 32 31 32 32 33 33 34 35 38 40 42 43 43 44 45 45 45 45 45 46 47 47 47 47 47 47 47 46 45 45 44 45 46 48 50 52 51 52 53 55 57
32 32 32 32 33 34 35 34 34 35 37 40 42 43 45 45 45 46 46 46 46 46 47 46 46 46 46 46 46 45 45 45 46 48 50 52 52 53 54 55 57 59
31 32 33 33 33 34 36 36 36 35 36 37 40 43 44 45 46 47 47 47 47 47 48 47 47 46 46 45 45 45 46 47 48 49 50 51 52 53 55 57 59 62
30 31 32 34 34 35 36 38 39 39 37 37 38 42 44 45 46 48 49 49 49 50 49 48 46 45 44 43 44 45 46 47 48 49 50 51 53 55 57 60 63 65
31 31 32 33 34 35 35 36 38 40 41 40 39 41 44 46 47 48 50 51 52 52 50 48 46 44 43 43 44 46 47 49 50 51 53 54 56 58 61 63 65 66
31 31 31 32 33 33 34 35 35 38 40 41 42 42 44 46 48 48 49 51 52 53 52 51 49 47 46 47 48 49 50 52 53 55 56 58 59 61 63 64 66 66
31 32 31 31 32 32 33 34 35 36 38 40 42 43 45 47 49 50 51 51 52 53 53 52 52 51 51 51 51 53 54 55 57 58 59 60 61 63 64 64 65 64
31 32 32 32 32 32 33 34 35 36 37 38 40 42 44 47 48 49 50 50 50 50 50 50 51 52 53 53 54 56 57 58 59 60 60 61 62 63 63 63 62 62
30 32 33 33 33 33 32 33 35 36 37 38 40 41 43 44 46 47 47 48 48 47 47 48 50 52 53 54 56 57 58 59 59 60 61 62 62 61 60 60 61 62
30 31 33 34 34 34 34 34 35 36 38 39 40 41 42 43 44 45 45 46 47 47 47 48 49 51 52 54 55 56 57 58 59 60 60 60 59 59 59 60 61 63
29 31 33 34 35 35 35 35 36 37 38 39 40 41 43 44 45 46 46 47 47 48 49 51 52 52 54 55 56 58 58 59 59 59 57 57 57 58 59 61 62 64
29 30 32 34 35 35 35 35 36 36 37 38 39 40 42 44 45 47 48 49 50 51 52 53 54 55 56 57 58 59 59 58 57 56 55 56 58 59 61 62 62 62
30 30 31 33 35 35 35 34 34 35 36 37 38 39 39 41 43 45 47 49 50 51 52 54 55 56 57 57 58 58 57 55 55 55 56 58 59 60 60 60 59 58
31 30 30 31 33 34 34 34 34 35 36 37 38 39 40 41 42 44 46 48 49 51 52 54 55 55 56 57 57 56 55 54 55 56 57 57 58 58 57 56 56 56
Wind_Direction
252 250 246 241 237 235 236 234 232 235 235 228 227 230 231 231 233 236 240 244 248 252 256 261 265 262 256 255 257 260 264 266 270 276 281 285 288 289 288 289 289 289
250 248 246 243 238 234 234 234 233 236 235 230 229 232 233 235 237 239 243 247 251 254 257 259 260 260 258 258 260 263 266 269 274 279 283 286 289 289 289 289 288 289
252 249 246 244 240 234 233 234 235 237 236 233 232 234 235 237 240 243 245 248 251 253 255 256 256 259 262 262 262 264 267 273 278 282 285 289 291 291 290 289 288 289
254 251 247 245 241 234 230 232 232 233 235 236 235 236 236 237 240 243 245 247 249 250 252 254 257 261 264 262 261 262 268 276 281 284 288 292 293 293 291 290 289 290
255 252 248 245 242 234 231 231 230 231 235 238 238 236 235 236 237 241 245 247 249 250 251 255 259 262 264 262 260 263 271 278 281 285 290 293 293 293 292 291 291 291
256 252 248 245 242 237 233 234 234 235 238 240 239 236 234 234 237 241 246 249 252 253 254 258 260 262 264 263 262 266 273 277 281 286 291 293 292 292 292 292 292 292
256 253 249 246 243 239 235 235 236 236 238 239 239 238 236 236 238 242 247 252 256 258 259 261 262 264 266 266 265 269 274 278 283 288 290 291 291 292 293 293 293 293
255 254 250 247 245 241 235 234 234 234 234 237 240 241 240 239 240 243 247 252 258 260 262 263 264 266 268 268 268 271 275 281 285 288 288 289 291 293 294 294 295 295
255 253 250 247 245 242 237 233 233 233 233 236 240 243 244 244 244 244 246 249 254 258 262 264 266 268 269 268 270 274 279 283 285 286 286 288 291 293 294 295 296 296
254 252 249 246 243 243 240 237 235 235 235 236 240 243 246 247 246 246 246 249 253 257 261 264 266 267 267 269 273 278 282 283 284 285 286 288 290 292 293 294 294 294
255 253 251 248 244 242 241 240 238 237 238 239 240 243 245 246 246 247 248 251 253 256 259 262 263 265 267 272 276 279 282 283 284 286 287 289 290 290 291 292 293 295
256 257 255 254 251 246 242 241 241 240 240 240 241 242 244 246 246 247 249 252 254 256 258 259 262 265 269 273 277 280 282 284 286 288 289 289 289 289 289 291 294 296
256 259 259 259 258 254 249 245 244 244 243 242 242 242 244 246 246 246 249 252 254 255 257 259 262 266 271 275 278 279 281 285 288 290 288 287 286 288 290 292 295 297
255 256 258 259 258 257 254 250 246 245 245 244 244 244 245 246 246 246 249 253 254 254 256 260 264 268 272 275 277 279 283 287 289 287 285 284 285 287 290 292 295 298
257 256 256 258 257 256 254 251 247 246 246 246 246 245 245 246 246 247 249 252 253 255 258 262 266 269 273 278 281 283 285 285 284 282 281 283 285 287 290 293 296 300
260 259 258 258 258 257 255 253 250 249 249 249 248 246 244 245 246 246 248 251 253 256 260 264 268 272 276 279 281 280 279 278 278 278 280 283 286 289 292 295 298 300
264 262 262 261 261 261 260 257 254 252 251 250 250 250 248 247 247 247 248 250 252 255 258 262 266 270 272 273 273 273 273 274 276 278 281 284 287 291 293 296 298 301
267 264 264 265 264 264 263 261 258 255 252 251 251 251 251 251 250 249 249 250 252 254 257 260 263 265 266 267 268 270 272 274 276 279 282 286 289 292 294 297 300 302
269 266 265 265 265 265 264 262 261 258 256 255 254 253 252 252 252 252 252 254 257 259 261 261 261 262 264 266 268 271 273 275 278 281 285 288 290 293 296 299 301 303
271 267 264 263 264 264 263 261 261 260 260 259 260 258 256 255 255 256 257 259 262 264 264 264 264 264 266 268 271 273 275 278 281 284 287 289 292 296 298 300 302 304
273 267 264 262 262 262 261 260 259 260 260 260 261 261 260 259 259 259 261 262 264 265 267 268 269 270 271 272 274 276 278 281 284 286 289 292 295 297 299 300 301 303
274 268 264 263 262 262 261 260 258 258 258 259 260 259 259 259 259 260 261 263 264 266 267 268 270 272 273 275 277 279 281 283 286 288 291 294 295 296 297 299 300 302
275 269 264 262 262 263 262 261 260 258 258 258 259 260 260 259 259 258 258 260 262 264 266 268 269 271 273 275 277 280 282 284 287 289 291 292 293 295 296 298 300 302
278 272 266 262 261 262 263 263 262 260 258 258 258 259 261 261 260 259 259 260 262 264 266 269 271 273 275 277 279 281 283 286 288 289 290 291 293 295 297 298 300 302
281 278 273 268 264 263 263 264 264 262 261 260 259 260 262 263 263 262 262 263 264 266 268 270 273 275 276 278 280 282 285 287 287 288 289 291 293 295 296 298 300 303
283 282 279 275 270 267 266 265 265 264 264 264 264 264 264 265 265 265 265 265 266 268 269 271 273 275 277 278 280 282 284 285 286 287 289 291 293 295 297 299 302 304
Height
10708 10710 10712 10714 10716 10718 10720 10721 10723 10724 10725 10726 10727 10728 10729 10731 10731 10729 10727 10727 10727 10728 10730 10731 10731 10729 10728 10728 10728 10728 10728 10727 10726 10726 10724 10723 10722 10720 10719 10717 10715 10714
10703 10705 10707 10709 10711 10714 10716 10717 10719 10720 10721 10722 10723 10724 10726 10727 10725 10724 10723 10723 10724 10725 10726 10727 10726 10725 10725 10725 10725 10724 10724 10723 10722 10721 10720 10719 10718 10716 10714 10713 10711 10709
10700 10701 10703 10705 10707 10710 10712 10713 10714 10716 10717 10718 10718 10720 10721 10721 10719 10718 10719 10719 10719 10721 10722 10722 10722 10722 10722 10722 10721 10720 10719 10719 10718 10717 10716 10715 10714 10712 10710 10708 10706 10704
10697 10698 10699 10701 10702 10704 10705 10707 10709 10711 10713 10713 10714 10715 10716 10715 10714 10714 10714 10715 10715 10716 10717 10717 10718 10719 10719 10718 10717 10716 10716 10715 10714 10713 10712 10711 10709 10708 10706 10703 10701 10699
10694 10694 10695 10695 10697 10698 10699 10701 10704 10706 10708 10709 10710 10711 10711 10711 10710 10709 10709 10710 10711 10712 10713 10713 10714 10714 10714 10714 10713 10712 10712 10711 10710 10709 10708 10706 10705 10703 10701 10699 10696 10693
10690 10690 10690 10691 10692 10693 10695 10697 10700 10701 10702 10703 10705 10706 10706 10707 10706 10705 10705 10706 10706 10707 10708 10709 10709 10709 10709 10709 10709 10708 10708 10707 10706 10705 10703 10702 10700 10698 10696 10694 10691 10688
10685 10685 10686 10687 10688 10690 10691 10694 10695 10696 10697 10698 10700 10701 10701 10702 10701 10701 10702 10702 10702 10703 10704 10704 10704 10705 10705 10705 10705 10704 10703 10702 10701 10700 10699 10697 10695 10693 10691 10688 10685 10683
10680 10681 10682 10684 10685 10686 10687 10689 10691 10692 10693 10694 10695 10696 10696 10696 10697 10697 10697 10698 10698 10698 10698 10699 10699 10700 10701 10701 10700 10699 10698 10697 10696 10695 10694 10692 10690 10688 10685 10683 10680 10678
10677 10677 10678 10680 10682 10682 10683 10685 10687 10688 10689 10690 10691 10691 10692 10692 10693 10693 10692 10693 10693 10693 10694 10694 10695 10696 10696 10695 10695 10694 10693 10693 10691 10690 10689 10687 10685 10682 10680 10678 10675 10673
10673 10673 10675 10677 10678 10678 10680 10682 10683 10684 10685 10686 10687 10687 10687 10688 10688 10688 10688 10688 10689 10689 10690 10690 10691 10691 10690 10690 10689 10689 10689 10687 10686 10685 10684 10682 10680 10677 10675 10673 10670 10668
10670 10670 10672 10673 10674 10674 10676 10678 10678 10680 10681 10682 10683 10683 10683 10683 10683 10683 10683 10684 10684 10685 10686 10686 10686 10686 10685 10685 10685 10684 10683 10682 10681 10680 10678 10676 10674 10672 10670 10668 10665 10662
10667 10667 10669 10670 10670 10671 10672 10673 10674 10675 10676 10677 10678 10679 10679 10679 10679 10679 10679 10680 10680 10681 10681 10682 10681 10681 10680 10680 10679 10679 10678 10677 10676 10675 10673 10671 10669 10667 10665 10662 10660 10657
10664 10664 10665 10666 10666 10667 10668 10669 10670 10671 10672 10673 10674 10675 10675 10675 10676 10676 10676 10676 10676 10676 10676 10676 10676 10676 10675 10675 10675 10674 10673 10672 10671 10670 10668 10666 10664 10662 10659 10657 10654 10651
10660 10661 10661 10662 10663 10663 10664 10665 10666 10667 10667 10669 10670 10671 10671 10671 10671 10672 10672 10672 10671 10671 10671 10671 10671 10671 10670 10670 10669 10669 10668 10667 10666 10665 10663 10660 10658 10656 10654 10651 10649 10646
10656 10657 10657 10658 10658 10659 10659 10661 10662 10662 10663 10664 10665 10666 10666 10666 10667 10667 10667 10667 10667 10666 10666 10666 10666 10666 10666 10665 10664 10664 10663 10662 10661 10659 10657 10655 10653 10651 10648 10646 10643 10640
10652 10653 10653 10654 10654 10654 10655 10656 10656 10657 10658 10659 10660 10660 10661 10661 10662 10662 10663 10663 10662 10662 10662 10662 10662 10661 10661 10660 10659 10659 10657 10656 10655 10653 10651 10649 10647 10645 10643 10640 10638 10635
10649 10649 10649 10649 10650 10650 10651 10651 10652 10653 10653 10654 10655 10655 10656 10657 10657 10657 10658 10658 10658 10657 10657 10656 10656 10655 10655 10654 10653 10652 10651 10650 10649 10647 10646 10644 10642 10640 10638 10635 10633 10630
10645 10645 10645 10645 10646 10646 10647 10647 10648 10648 10649 10650 10651 10651 10652 10652 10652 10652 10652 10652 10652 10651 10651 10650 10650 10650 10649 10648 10648 10647 10646 10645 10644 10642 10641 10639 10637 10635 10633 10631 10628 10625
10642 10641 10642 10642 10642 10642 10643 10644 10644 10645 10645 10646 10647 10647 10647 10647 10647 10647 10647 10647 10647 10646 10646 10646 10645 10645 10644 10643 10643 10642 10641 10640 10639 10637 10636 10634 10632 10630 10628 10625 10623 10620
10638 10638 10638 10639 10639 10639 10639 10640 10640 10641 10642 10642 10642 10643 10642 10642 10643 10643 10643 10643 10642 10642 10642 10641 10641 10640 10639 10639 10638 10637 10636 10635 10634 10633 10631 10629 10627 10625 10623 10620 10618 10615
10635 10635 10635 10635 10635 10635 10635 10635 10636 10636 10637 10638 10638 10639 10638 10638 10638 10638 10638 10637 10637 10637 10637 10636 10636 10635 10634 10634 10633 10632 10631 10630 10629 10627 10625 10624 10622 10620 10618 10615 10612 10610
10632 10632 10632 10632 10632 10631 10631 10631 10631 10632 10633 10633 10634 10634 10634 10634 10633 10633 10632 10632 10632 10632 10631 10631 10631 10630 10629 10629 10628 10627 10626 10624 10623 10622 10620 10619 10617 10615 10613 10610 10607 10605
10629 10628 10628 10628 10628 10628 10628 10628 10627 10628 10628 10629 10629 10629 10629 10629 10629 10628 10627 10627 10627 10627 10626 10626 10626 10625 10624 10623 10622 10621 10620 10619 10618 10616 10615 10614 10612 10609 10607 10605 10602 10599
10625 10625 10625 10624 10624 10624 10624 10624 10624 10624 10624 10625 10625 10624 10624 10624 10623 10623 10622 10622 10622 10622 10621 10620 10620 10619 10619 10618 10617 10616 10615 10614 10612 10611 10610 10608 10606 10604 10601 10599 10597 10594
10622 10621 10621 10620 10620 10620 10621 10621 10620 10620 10620 10620 10620 10620 10620 10619 10618 10618 10617 10617 10617 10617 10616 10615 10614 10614 10613 10612 10611 10610 10609 10608 10607 10606 10604 10602 10600 10598 10596 10593 10591 10588
10618 10617 10616 10616 10615 10616 10616 10616 10616 10616 10616 10616 10616 10615 10615 10615 10614 10613 10612 10612 10612 10611 10610 10610 10609 10608 10607 10607 10606 10605 10604 10603 10602 10601 10599 10597 10595 10593 10590 10588 10585 10582